Main page
METAR-TAF:

METAR-TAF

Airports :

Syros, Greece

Syros Island National Airport

latitude: 37-25-16N, longitude: 024-56-54E, elevation: 73 m

Current weather observation

The report was made 1 hour and 7 minutes ago, at 08:50 UTC
Wind 15 kt from the North
Temperature 19°C
Humidity 60%
Pressure 1020 hPa
Visibility 10 km or more
no clouds below 1500 m and no cumulonimbus

METAR: LGSO 190850Z 36015KT CAVOK 19/11 Q1020

Time: 12:57 (09:57 UTC)


TAF: missing

Weather observations and forecasts of more than 4000 airports (METAR and TAF reports).

The available stations are represented by yellow and red dots on the map.

Hover mouse over dot to see the name of the station.

Then click to see weather observations and forecasts.

To change the map : click on the green buttons with a black cross to zoom in, on the green button with a dash to zoom out, or on the green arrows for adjacent maps.


METAR-TAF: